Location: Guferjoch
(46.7462°N, 8.4506°E)
Time: 23:41:42
(UTC+00:00)

Cosmos 1184 Rocket - Pass Details

Date: 14 July 2020
Orbit: 408 x 422 km, 81.2° (Epoch: 14 August)

Event Time Altitude Azimuth Distance (km) Brightness Sun altitude
Exits shadow 00:50:05 61° 275° (W) 479 2.9 -19.4°
Maximum altitude 00:50:08 61° 282° (WNW) 479 2.9 -19.4°
Drops below altitude 10° 00:53:23 10° 4° (N) 1,505 6.7 -19.2°
Sets 00:55:28 0° 8° (N) 2,377 8.1 -19.1°
